Location: Unspecified
(35.6961°N, 0.0000°E)
Time: 13:51:33
(UTC+00:00)

Altair - Pass Details

Date: 26 May 2019
Orbit: 1501 x 1683 km, 47.2° (Epoch: 25 June)

Event Time Altitude Azimuth Distance (km) Brightness Sun altitude
Rises 04:02:39 0° 255° (WSW) 4,892 - -8.8°
Exits shadow 04:04:48 - 258° (WSW) 4,244 9.2 -8.4°
Reaches altitude 10° 04:05:53 10° 260° (W) 3,921 9.1 -8.2°
Maximum altitude 04:15:49 58° 338° (NNW) 1,919 8.1 -6.5°
Drops below altitude 10° 04:25:48 10° 56° (NE) 3,931 11.6 -4.8°
Sets 04:29:04 0° 60° (ENE) 4,907 13.5 -4.2°
